Location: �bnet
(46.9957°N, 8.4908°E)
Time: 01:10:27
(UTC+00:00)

Meteor 1-5 Rocket - Pass Details

Date: 11 May 2021
Orbit: 789 x 915 km, 81.2° (Epoch: 23 June)

Event Time Altitude Azimuth Distance (km) Brightness Sun altitude
Rises 20:57:28 0° 346° (NNW) 3,352 8.6 -17.2°
Reaches altitude 10° 20:59:55 10° 343° (NNW) 2,401 7.7 -17.4°
Maximum altitude 21:05:14 64° 263° (W) 883 4.4 -18.0°
Enters shadow 21:08:31 23° 189° (S) 1,628 5.3 -18.3°
